[[{"header":{"parameterUnit":"m.s-1","parameterCategory":1,"la1":30.2991,"la2":30.254,"lo1":-89.0895,"lo2":-89.0444,"dy":0.0017,"dx":0.0017,"nx":28,"ny":28,"refTime":"2024-04-13T09:00:00:Z","depth":0,"parameterNumber":2,"parameterNumberName":"U-component_of_WINDS"},"data":[0,0,0,0,0,0,0,0,0,0,0,0,0,0,0,0,0,0,0,0,0,0,0,0,0,0,0,0,0,0,0,0,0,0,0,0,0,0,0,0,0,0,0,0,0,0,0,0,0,0,0,0,0,0,0,0,0,0,-1.6527,-1.6528,0,-1.659,-1.6591,-1.6592,-1.6611,-1.6611,-1.6611,-1.661,-1.6676,-1.6678,-1.668,0,0,0,0,0,0,0,0,0,0,0,0,0,-1.6424,-1.6426,-1.6527,-1.6528,-1.6529,-1.659,-1.6591,-1.6592,-1.6611,-1.6611,-1.6611,-1.661,-1.6675,-1.6677,-1.668,0,0,0,0,0,0,0,0,0,0,0,0,0,-1.6476,-1.6426,-1.6527,-1.6546,-1.6548,-1.659,-1.6591,-1.6592,-1.6611,-1.6611,-1.661,-1.661,-1.6674,-1.6677,-1.668,-1.6709,0,0,-1.669,-1.6691,0,0,0,0,0,0,0,0,-1.6473,-1.648,-1.6542,-1.6545,-1.6547,-1.6592,-1.6579,-1.6631,-1.6611,-1.6587,-1.661,-1.661,-1.6648,-1.6654,-1.6667,-1.6712,-1.6714,-1.669,-1.6692,-1.6693,-1.6694,0,0,0,0,0,0,0,-1.647,-1.6477,-1.6552,-1.6543,-1.6546,-1.6551,-1.6558,-1.6589,-1.662,-1.6589,-1.6591,-1.6598,-1.665,-1.6664,-1.6668,-1.6715,-1.669,-1.6693,-1.6694,-1.6696,-1.6786,-1.6787,0,0,0,0,0,0,-1.6463,-1.6474,-1.655,-1.6554,-1.6508,-1.6553,-1.6561,-1.6578,-1.662,-1.6625,-1.6598,-1.6599,-1.6659,-1.6665,-1.6671,-1.6706,-1.6693,-1.6696,-1.6698,-1.6786,-1.6787,-1.6787,0,0,0,0,0,0,-1.646,-1.6469,-1.6548,-1.6515,-1.6525,-1.6556,-1.6575,-1.658,-1.6594,-1.6626,-1.6632,-1.6607,-1.6658,-1.6666,-1.6699,-1.6708,-1.6697,-1.67,-1.6785,-1.6786,-1.6787,-1.6777,0,0,0,0,0,0,-1.6457,-1.6468,-1.6479,-1.6515,-1.6527,-1.6575,-1.6576,-1.6581,-1.6599,-1.66,-1.6636,-1.6641,-1.6659,-1.6694,-1.6702,-1.6712,-1.6702,-1.6784,-1.6786,-1.6787,-1.6777,-1.6777,-1.6778,0,0,0,0,0,-1.6454,-1.6474,-1.648,-1.6489,-1.6541,-1.6575,-1.6582,-1.6601,-1.66,-1.6611,-1.6632,-1.664,-1.6706,-1.6697,-1.6706,-1.6718,-1.6784,-1.6785,-1.6787,-1.6776,-1.6777,-1.6778,0,0,0,0,0,0,-1.6439,-1.6479,-1.6486,-1.6518,-1.6543,-1.6578,-1.6593,-1.6602,-1.6628,-1.6628,-1.6651,-1.6659,-1.669,-1.6707,-1.6697,-1.6747,-1.6745,-1.6749,-1.6735,-1.6736,-1.6736,-1.6731,-1.6705,0,0,0,0,0,-1.644,-1.6464,-1.6498,-1.6523,-1.6535,-1.6562,-1.6578,-1.6591,-1.6617,-1.6628,-1.6651,-1.6677,-1.6704,-1.6721,-1.6747,-1.6779,-1.6787,-1.6792,-1.6793,-1.6793,-1.6795,-1.6813,-1.6815,-1.6792,-1.6792,-1.6791,0,0,-1.6441,-1.6466,-1.648,-1.6521,-1.6542,-1.6566,-1.6571,-1.6597,-1.6615,-1.6632,-1.6664,-1.6682,-1.6713,-1.6745,-1.676,-1.676,-1.6804,-1.6795,-1.6795,-1.6797,-1.6815,-1.6817,-1.6819,-1.6792,-1.6792,-1.6792,0,0,-1.6457,-1.6478,-1.6501,-1.6522,-1.6553,-1.6571,-1.6576,-1.661,-1.6623,-1.6655,-1.6668,-1.6691,-1.6736,-1.6757,-1.6774,-1.6797,-1.6805,-1.6805,-1.6809,-1.6826,-1.6827,-1.6829,-1.6837,-1.6839,-1.6807,-1.6807,-1.6807,0,-1.6455,-1.6492,-1.6512,-1.6537,-1.6555,-1.6571,-1.6595,-1.6614,-1.6652,-1.6664,-1.6664,-1.6721,-1.6743,-1.678,-1.6785,-1.6798,-1.6805,-1.68,-1.6826,-1.6827,-1.6829,-1.6837,-1.684,-1.6807,-1.6807,-1.6807,-1.6807,0,-1.6488,-1.6513,-1.6529,-1.6565,-1.6584,-1.6608,-1.6632,-1.665,-1.6661,-1.6679,-1.6711,-1.6738,-1.677,-1.678,-1.6791,-1.6818,-1.6817,-1.6821,-1.6819,-1.6831,-1.6838,-1.6842,-1.6806,-1.6806,-1.6807,-1.6807,0,0,-1.6495,-1.6542,-1.6547,-1.6564,-1.6599,-1.662,-1.6645,-1.6676,-1.669,-1.6716,-1.6737,-1.6775,-1.6779,-1.6798,-1.6812,-1.6827,-1.6842,-1.6829,-1.683,-1.683,-1.6874,-1.687,-1.6873,-1.6849,-1.6849,-1.685,-1.6871,0,-1.6514,-1.6559,-1.6578,-1.6615,-1.6638,-1.6654,-1.6676,-1.67,-1.6718,-1.6741,-1.676,-1.6786,-1.6789,-1.6801,-1.6816,-1.6837,-1.6851,-1.6836,-1.6869,-1.6869,-1.686,-1.6877,-1.6874,-1.6892,-1.6874,-1.6874,-1.6875,0,-1.6543,-1.6568,-1.6607,-1.6639,-1.665,-1.6669,-1.6698,-1.672,-1.6748,-1.676,-1.6781,-1.6794,-1.6821,-1.6818,-1.6856,-1.6845,-1.6859,-1.6872,-1.6873,-1.6876,-1.6872,-1.688,-1.6898,-1.6901,-1.688,-1.6879,-1.6879,0,-1.6543,-1.6588,-1.6616,-1.663,-1.6668,-1.6681,-1.6698,-1.6726,-1.6743,-1.6769,-1.678,-1.6809,-1.6825,-1.6847,-1.6868,-1.6864,-1.6903,-1.6903,-1.6914,-1.6913,-1.692,-1.692,-1.6941,-1.6931,-1.6931,-1.6931,-1.6931,0,-1.6562,-1.6585,-1.6617,-1.6634,-1.666,-1.6682,-1.6707,-1.6725,-1.675,-1.6771,-1.6787,-1.6807,-1.6833,-1.6856,-1.6873,-1.6901,-1.6908,-1.6918,-1.6922,-1.6917,-1.6915,-1.6926,-1.6925,-1.6932,-1.6931,-1.6931,-1.6931,0,-1.6567,-1.6589,-1.6621,-1.6655,-1.6664,-1.6682,-1.6711,-1.6729,-1.6747,-1.6774,-1.6781,-1.681,-1.6838,-1.6861,-1.6898,-1.6909,-1.6938,-1.6943,-1.6929,-1.6931,-1.694,-1.6938,-1.6968,-1.6973,-1.696,-1.6961,-1.6961,0,-1.6577,-1.6595,-1.6631,-1.6646,-1.6662,-1.6687,-1.6704,-1.6727,-1.6744,-1.6777,-1.6791,-1.682,-1.6845,-1.6889,-1.6913,-1.6941,-1.6947,-1.6955,-1.6951,-1.6945,-1.6946,-1.6944,-1.6946,-1.6955,-1.6955,-1.6955,-1.6955,0,-1.6593,-1.6603,-1.6627,-1.6655,-1.6675,-1.6699,-1.6723,-1.6734,-1.6761,-1.678,-1.6809,-1.6828,-1.6866,-1.6894,-1.6925,-1.6943,-1.6954,-1.6957,-1.696,-1.6954,-1.6945,-1.695,-1.6929,-1.6956,-1.6956,-1.6956,-1.6956,-1.6956,-1.66,-1.6616,-1.6644,-1.667,-1.6691,-1.6712,-1.6731,-1.6751,-1.6775,-1.6807,-1.6819,-1.6848,-1.6876,-1.6918,-1.6936,-1.696,-1.6961,-1.6967,-1.6968,-1.6969,-1.6968,-1.6942,-1.6966,-1.6966,-1.6966,-1.6966,-1.6966,0,-1.6616,-1.6634,-1.6658,-1.6691,-1.6712,-1.672,-1.6747,-1.6764,-1.6789,-1.6814,-1.6838,-1.6871,-1.6898,-1.6925,-1.6954,-1.6968,-1.6973,-1.6975,-1.6973,-1.6977,-1.6965,-1.6959,-1.6969,-1.6969,-1.6969,-1.6969,-1.6969,-1.6969,-1.6626,-1.6654,-1.6668,-1.6706,-1.6724,-1.6753,-1.6767,-1.6787,-1.6807,-1.6843,-1.6866,-1.6883,-1.6908,-1.694,-1.6966,-1.6973,-1.6982,-1.6982,-1.6991,-1.6979,-1.6978,-1.6977,-1.6971,-1.6984,-1.6984,-1.7,-1.7001,-1.7001]},{"header":{"parameterUnit":"m.s-1","parameterCategory":1,"la1":30.2991,"la2":30.254,"lo1":-89.0895,"lo2":-89.0444,"dy":0.0017,"dx":0.0017,"nx":28,"ny":28,"refTime":"2024-04-13T09:00:00:Z","depth":0,"parameterNumber":3,"parameterNumberName":"V-component_of_WINDS"},"data":[0,0,0,0,0,0,0,0,0,0,0,0,0,0,0,0,0,0,0,0,0,0,0,0,0,0,0,0,0,0,0,0,0,0,0,0,0,0,0,0,0,0,0,0,0,0,0,0,0,0,0,0,0,0,0,0,0,0,2.8221,2.822,0,2.8156,2.8155,2.8154,2.8059,2.8058,2.8056,2.8055,2.799,2.7989,2.7989,0,0,0,0,0,0,0,0,0,0,0,0,0,2.8265,2.8264,2.8221,2.822,2.8219,2.8156,2.8155,2.8154,2.806,2.8058,2.8056,2.8054,2.799,2.7989,2.7989,0,0,0,0,0,0,0,0,0,0,0,0,0,2.8227,2.8264,2.8221,2.8165,2.8159,2.8156,2.8155,2.8154,2.806,2.8058,2.8055,2.8053,2.799,2.7989,2.7989,2.8037,0,0,2.7988,2.7988,0,0,0,0,0,0,0,0,2.823,2.8226,2.8174,2.8169,2.8162,2.8113,2.8146,2.8115,2.8061,2.8098,2.8054,2.8052,2.8033,2.8029,2.8022,2.8034,2.8031,2.7988,2.7988,2.7988,2.7988,0,0,0,0,0,0,0,2.8232,2.8228,2.8195,2.8173,2.8166,2.8143,2.8135,2.814,2.808,2.8094,2.8087,2.8081,2.8029,2.8023,2.802,2.803,2.7988,2.7988,2.7988,2.7988,2.8077,2.8079,0,0,0,0,0,0,2.8243,2.8231,2.8197,2.8193,2.819,2.8144,2.8135,2.8131,2.808,2.8069,2.8083,2.8077,2.8024,2.802,2.8017,2.8069,2.7988,2.7988,2.7988,2.8074,2.8078,2.808,0,0,0,0,0,0,2.8245,2.8241,2.82,2.821,2.8203,2.8146,2.8143,2.8131,2.8125,2.8071,2.806,2.8087,2.8022,2.8018,2.8032,2.8065,2.7988,2.7987,2.8071,2.8075,2.8079,2.8174,0,0,0,0,0,0,2.8246,2.8242,2.826,2.8211,2.8203,2.8216,2.8145,2.8132,2.8124,2.8115,2.8072,2.8063,2.802,2.8033,2.8032,2.8064,2.7987,2.8068,2.8073,2.8078,2.8167,2.818,2.8191,0,0,0,0,0,2.8248,2.829,2.8261,2.8257,2.8224,2.8218,2.8214,2.8163,2.8127,2.8144,2.811,2.8064,2.8062,2.8036,2.8034,2.8065,2.8066,2.8072,2.8077,2.8162,2.8178,2.8191,0,0,0,0,0,0,2.8344,2.8282,2.825,2.8277,2.8254,2.8202,2.8222,2.8182,2.8168,2.8161,2.8099,2.809,2.8113,2.809,2.8062,2.8108,2.8057,2.8063,2.8122,2.8137,2.8148,2.8153,2.7987,0,0,0,0,0,2.8368,2.8369,2.8315,2.8344,2.8334,2.8281,2.8276,2.8239,2.8213,2.8203,2.8169,2.8146,2.8139,2.8137,2.8128,2.8164,2.8152,2.8184,2.8197,2.8207,2.8212,2.8228,2.8241,2.8099,2.8099,2.8099,0,0,2.8418,2.8385,2.8389,2.8362,2.834,2.8342,2.8273,2.8278,2.8279,2.8204,2.8215,2.819,2.8159,2.8185,2.8194,2.8167,2.8249,2.8214,2.8222,2.8222,2.8235,2.8249,2.8261,2.8103,2.8102,2.8102,0,0,2.8511,2.8486,2.8506,2.8485,2.8451,2.8416,2.8421,2.8376,2.8356,2.8366,2.8309,2.831,2.8301,2.8281,2.827,2.8354,2.8311,2.8353,2.8416,2.8432,2.8443,2.8453,2.8482,2.8493,2.8359,2.8359,2.8359,0,2.8577,2.8578,2.8522,2.8531,2.8521,2.8452,2.8472,2.8455,2.8421,2.8415,2.8385,2.8372,2.8346,2.8365,2.8386,2.8379,2.8383,2.8358,2.8446,2.8455,2.8463,2.849,2.8502,2.8364,2.8364,2.8363,2.8363,0,2.8661,2.8662,2.8683,2.8651,2.8643,2.8658,2.8605,2.8604,2.8567,2.8535,2.8546,2.8513,2.8496,2.8498,2.8463,2.8512,2.8496,2.8457,2.8404,2.8483,2.8507,2.8517,2.8372,2.837,2.8368,2.8367,0,0,2.8811,2.8748,2.8757,2.8741,2.8699,2.8699,2.871,2.8693,2.8693,2.8672,2.8679,2.8673,2.8636,2.8624,2.8586,2.86,2.8668,2.8559,2.8557,2.858,2.8719,2.8748,2.8761,2.864,2.8641,2.8643,2.8721,0,2.8895,2.891,2.886,2.8888,2.8888,2.8823,2.8833,2.8808,2.8778,2.8774,2.8741,2.8737,2.8689,2.8681,2.8692,2.8658,2.8695,2.8651,2.8646,2.8646,2.8655,2.8774,2.8805,2.8881,2.873,2.8732,2.8733,0,2.8994,2.8977,2.9005,2.896,2.8958,2.8968,2.8948,2.8945,2.8916,2.8893,2.8878,2.8834,2.8842,2.8792,2.8802,2.8773,2.8768,2.8751,2.8752,2.8749,2.8694,2.8774,2.8904,2.8915,2.8748,2.8747,2.8746,0,2.91,2.9084,2.9098,2.9087,2.9036,2.9044,2.9023,2.8991,2.8984,2.8967,2.8961,2.8945,2.8937,2.8925,2.8878,2.8846,2.8893,2.8839,2.8874,2.8876,2.8887,2.8887,2.9017,2.8885,2.8885,2.8885,2.8884,0,2.9197,2.9217,2.9145,2.9154,2.9174,2.9117,2.9138,2.9111,2.9083,2.9085,2.9028,2.9032,2.8969,2.8966,2.8929,2.8942,2.8939,2.892,2.891,2.8925,2.8928,2.8921,2.8914,2.8888,2.8887,2.8886,2.8886,0,2.9319,2.9272,2.9283,2.9233,2.9221,2.9238,2.9195,2.9202,2.9168,2.9171,2.9169,2.9116,2.9109,2.906,2.9043,2.9018,2.9045,2.9025,2.9055,2.9048,2.9085,2.9082,2.9215,2.923,2.9089,2.9091,2.9092,0,2.9384,2.9397,2.9349,2.9346,2.9327,2.9324,2.9316,2.926,2.9254,2.9221,2.9232,2.922,2.9207,2.9199,2.9159,2.9145,2.9124,2.9171,2.9121,2.9136,2.9123,2.9123,2.9124,2.9182,2.9184,2.9185,2.9186,0,2.9504,2.948,2.947,2.9453,2.9444,2.9428,2.9408,2.9409,2.9347,2.9344,2.9335,2.9326,2.9307,2.9296,2.9275,2.9253,2.921,2.9203,2.921,2.9225,2.9241,2.9232,2.9083,2.92,2.9198,2.9197,2.9197,2.9196,2.9598,2.9607,2.9574,2.9565,2.9544,2.9527,2.953,2.9496,2.9488,2.9468,2.9436,2.9432,2.9402,2.9369,2.9351,2.9347,2.9322,2.9332,2.9335,2.9338,2.9346,2.9243,2.9343,2.9342,2.9342,2.9342,2.9341,0,2.9715,2.969,2.9683,2.9656,2.9649,2.9609,2.9584,2.9581,2.9578,2.9553,2.9542,2.9532,2.9521,2.948,2.9465,2.9469,2.9449,2.9467,2.9466,2.9462,2.937,2.9365,2.9484,2.9484,2.9484,2.9484,2.9484,2.9484,2.9775,2.9787,2.9759,2.976,2.9735,2.973,2.972,2.9703,2.9683,2.9675,2.9665,2.9638,2.9606,2.9588,2.9576,2.9564,2.9561,2.9585,2.9567,2.9482,2.9468,2.9455,2.945,2.9585,2.9585,2.9659,2.966,2.966]}]]